Location: Unspecified
(48.2082°N, 0.0000°E)
Time: 08:35:42
(UTC+00:00)

A-11 Canister half - Pass Details

Date: 20 June 2019
Orbit: 1514 x 1685 km, 47.2° (Epoch: 16 July)

Event Time Altitude Azimuth Distance (km) Brightness Sun altitude
Rises 16:22:33 0° 287° (WNW) 4,797 12.5 33.5°
Reaches altitude 10° 16:25:44 10° 284° (WNW) 3,787 12.4 33.0°
Maximum altitude 16:35:00 58° 209° (SSW) 1,757 10.1 31.5°
Drops below altitude 10° 16:44:00 10° 133° (SE) 3,677 10.7 30.0°
Sets 16:47:03 0° 129° (SE) 4,650 11.1 29.5°
